Simultaneous Nadir Overpasses (SNOs) Predictions

Prediction of SNOs between AQUA and GOES-15 Satellite Orbit:

Table of predicted SNOs for the next 14.0 days since TLE Epoch: 4/15/2022
Index Date Time (AQUA) AQUA Lat,Lon GOES-15 Lat,Lon Distance(km) Time Diff (sec)
1 04/15/2022 22:19:15 -0.56,-130.35 -0.12,-128.39 223.36 80
2 04/17/2022 22:06:52 0.10,-127.34 -0.12,-128.38 117.61 80
3 04/18/2022 10:28:04 1.01,-132.48 0.12,-128.36 469.33 80
4 04/19/2022 21:54:28 0.71,-124.32 -0.12,-128.36 457.83 80
5 04/20/2022 10:15:41 0.33,-129.48 0.12,-128.33 129.49 80
6 04/22/2022 10:03:16 -0.24,-126.45 0.12,-128.30 209.92 80
7 04/22/2022 22:24:37 -0.80,-131.63 -0.12,-128.30 378.33 80
8 04/24/2022 22:12:13 -0.20,-128.61 -0.12,-128.27 38.94 80
9 04/26/2022 21:59:48 0.41,-125.59 -0.13,-128.23 300.59 80
10 04/27/2022 10:20:59 0.68,-130.73 0.12,-128.21 286.20 80
11 04/29/2022 10:08:34 0.04,-127.71 0.12,-128.18 53.26 80
